Bryce Canyon, UT

11:32 PM MDT on October 20, 2019 (GMT -0600)
Bryce Canyon

Weather History for KBCE - August, 2019

Change the Weather History Date:

Wednesday, August 28, 2019

  Actual Average Record
Temperature  
Mean Temperature 64 °F -  
Max Temperature 82 °F 74 °F 84 °F (2008)
Min Temperature 46 °F 41 °F 29 °F (1992)
Degree Days  
Heating Degree Days 2    
Growing Degree Days 14 (Base 50)    
Moisture  
Dew Point 31 °F    
Average Humidity 35    
Maximum Humidity 50    
Minimum Humidity 14    
Precipitation  
Precipitation 0.00 in - - ()
Sea Level Pressure  
Sea Level Pressure 30.12 in    
Wind  
Wind Speed 8 mph (West)    
Max Wind Speed 25 mph    
Max Gust Speed 37 mph    
Visibility 6 miles    
Events      
Averages and records for this station are not official NWS values.
T = Trace of Precipitation, MM = Missing Value Source: NWS Daily Summary

Daily Weather History Graph

Daily Weather History Graph

Search for Another Location

Airport or City:

Astronomy

Aug. 28, 2019 Rise Set
Actual Time 6:55 AM MDT 8:03 PM MDT
Civil Twilight 6:28 AM MDT 8:30 PM MDT
Nautical Twilight 5:55 AM MDT 9:02 PM MDT
Astronomical Twilight 5:22 AM MDT 9:36 PM MDT
Moon 4:35 AM MDT (8/28) 7:15 PM MDT (8/28)
Length of Visible Light 14h 02m
Length of Day
13h 08m
Waning Crescent, 4% of the Moon is Illuminated
Aug 28
Waning Crescent
Aug 30
New
Sep 5
First Quarter
Sep 13
Full
Sep 21
Last Quarter

Hourly Weather History & Observations

Time (MDT) Temp. Windchill Dew Point Humidity Pressure Visibility Wind Dir Wind Speed Gust Speed Precip Events Conditions
12:53 AM 51.1 °F - 27.0 °F 39% 29.97 in 10.0 mi West 6.9 mph - N/A   Clear
1:33 AM 52.0 °F - 27.0 °F 38% 30.36 in 2.5 mi WNW 5.8 mph - N/A   Haze
1:53 AM 51.1 °F - 27.0 °F 39% 29.97 in 3.0 mi Calm Calm - N/A   Haze
2:17 AM 50.0 °F - 27.0 °F 41% 30.36 in 2.5 mi WSW 4.6 mph - N/A   Haze
2:25 AM 50.0 °F - 27.0 °F 41% 30.36 in 3.0 mi WSW 4.6 mph - N/A   Haze
2:53 AM 50.0 °F - 27.0 °F 41% 29.97 in 4.0 mi West 6.9 mph - N/A   Haze
3:17 AM 48.9 °F - 27.0 °F 43% 30.36 in 2.5 mi West 4.6 mph - N/A   Haze
3:26 AM 48.9 °F - 27.0 °F 43% 30.36 in 3.0 mi West 5.8 mph - N/A   Haze
3:34 AM 48.9 °F - 27.0 °F 43% 30.36 in 2.5 mi WNW 4.6 mph - N/A   Haze
3:53 AM 48.9 °F - 27.0 °F 43% 29.98 in 2.5 mi West 5.8 mph - N/A   Haze
4:49 AM 48.2 °F - 26.6 °F 43% 30.37 in 3.0 mi West 9.2 mph - N/A   Haze
4:53 AM 48.0 °F - 27.0 °F 44% 29.99 in 3.0 mi West 10.4 mph - N/A   Haze
5:53 AM 46.0 °F 41.4 °F 27.0 °F 47% 30.01 in 4.0 mi West 9.2 mph - N/A   Haze
6:53 AM 46.0 °F 42.5 °F 27.0 °F 47% 30.02 in 2.5 mi West 6.9 mph - N/A   Haze
7:14 AM 46.0 °F 41.0 °F 27.0 °F 47% 30.38 in 3.0 mi West 10.4 mph - N/A   Haze
7:53 AM 50.0 °F - 28.0 °F 43% 30.04 in 2.5 mi West 6.9 mph - N/A   Haze
8:40 AM 60.1 °F - 30.0 °F 32% 30.39 in 3.0 mi West 6.9 mph - N/A   Haze
8:53 AM 62.1 °F - 30.9 °F 31% 30.02 in 3.0 mi West 4.6 mph - N/A   Haze
9:53 AM 73.9 °F - 28.0 °F 18% 30.01 in 9.0 mi Calm Calm - N/A   Clear
10:53 AM 79.0 °F - 26.1 °F 14% 30.03 in 10.0 mi South 4.6 mph - N/A   Clear
12:35 PM 81.0 °F - 34.0 °F 18% 30.42 in 10.0 mi SSW 12.7 mph - N/A   Partly Cloudy
12:53 PM 80.1 °F - 34.0 °F 19% 30.04 in 10.0 mi SW 15.0 mph - N/A   Scattered Clouds
1:53 PM 77.0 °F - 36.0 °F 23% 30.06 in - WSW 19.6 mph 28.8 mph N/A   Unknown
2:53 PM 78.1 °F - 36.0 °F 22% 30.04 in 10.0 mi West 18.4 mph 26.5 mph N/A   Clear
3:54 PM 77.0 °F - 39.0 °F 25% 30.03 in - West 11.5 mph - N/A   Unknown
4:53 PM 79.0 °F - 34.0 °F 20% 30.00 in 10.0 mi West 12.7 mph - N/A   Clear
5:53 PM 75.9 °F - 35.1 °F 23% 30.02 in 10.0 mi West 13.8 mph - N/A   Clear
6:53 PM 70.0 °F - 37.9 °F 31% 30.05 in 10.0 mi WNW 12.7 mph 24.2 mph N/A   Clear
7:53 PM 69.1 °F - 39.0 °F 33% 30.03 in 10.0 mi West 25.3 mph 36.8 mph N/A   Clear
8:53 PM 69.1 °F - 37.9 °F 32% 30.00 in 10.0 mi WNW 21.9 mph 32.2 mph 0.00 in   Mostly Cloudy
9:53 PM 68.0 °F - 39.9 °F 36% 29.96 in 10.0 mi West 23.0 mph 34.5 mph N/A   Partly Cloudy
10:53 PM 64.9 °F - 39.9 °F 40% 29.97 in 10.0 mi WNW 5.8 mph - N/A   Scattered Clouds
11:53 PM 62.1 °F - 43.0 °F 50% 30.00 in 10.0 mi WNW 24.2 mph 32.2 mph N/A   Clear